This is the latest recevied weather packets stored in our database for station/object YC0ACE-13. If no packets are shown the sender has not sent any weather packets the latest 10 day(s).
| Time | Temp. | Humidity | Pressure | Rain* | Wind** | Luminosity | Snow |
|---|---|---|---|---|---|---|---|
| 1777947024 | 28.89° C | 76% | 1016.6 hPa | 0 mm | - | 213 W/m² | - |
| 1777946725 | 28.89° C | 78% | 1016.9 hPa | 0 mm | - | 219 W/m² | - |
| 1777946424 | 28.89° C | 78% | 1016.6 hPa | 0 mm | - | 215 W/m² | - |
| 1777946125 | 28.89° C | 80% | 1016.6 hPa | 0 mm | - | 218 W/m² | - |
| 1777945825 | 28.89° C | 79% | 1016.9 hPa | 0 mm | - | 213 W/m² | - |
| 1777945525 | 28.89° C | 80% | 1016.3 hPa | 0 mm | - | 220 W/m² | - |
| 1777945225 | 28.89° C | 80% | 1016.3 hPa | 0 mm | - | 215 W/m² | - |
| 1777944925 | 28.89° C | 81% | 1016.6 hPa | 0 mm | - | 215 W/m² | - |
| 1777944624 | 28.89° C | 80% | 1016.3 hPa | 0 mm | - | 210 W/m² | - |
| 1777944324 | 28.89° C | 82% | 1016.3 hPa | 0 mm | - | 212 W/m² | - |
| 1777944024 | 28.89° C | 82% | 1016.3 hPa | 0 mm | - | 205 W/m² | - |
| 1777943728 | 28.33° C | 83% | 1016.3 hPa | 0 mm | - | 214 W/m² | - |
| 1777943424 | 28.33° C | 84% | 1016.3 hPa | 0 mm | - | 234 W/m² | - |
| 1777943124 | 27.78° C | 84% | 1016.3 hPa | 0 mm | - | 224 W/m² | - |
| 1777942824 | 27.78° C | 85% | 1015.9 hPa | 0 mm | - | 247 W/m² | - |
| 1777942525 | 27.78° C | 85% | 1016.3 hPa | 0 mm | - | 191 W/m² | - |
| 1777942224 | 27.22° C | 88% | 1015.9 hPa | 0 mm | - | 168 W/m² | - |
| 1777941924 | 27.22° C | 88% | 1015.6 hPa | 0 mm | - | 165 W/m² | - |
| 1777941624 | 27.22° C | 88% | 1015.9 hPa | 0 mm | - | 131 W/m² | - |
| 1777941325 | 26.67° C | 87% | 1015.6 hPa | 0 mm | - | 138 W/m² | - |
| 1777941025 | 26.67° C | 88% | 1015.6 hPa | 0 mm | - | 133 W/m² | - |
| 1777940724 | 26.67° C | 88% | 1015.6 hPa | 0 mm | - | 87 W/m² | - |
| 1777940424 | 26.11° C | 89% | 1015.6 hPa | 0 mm | - | 75 W/m² | - |
| 1777940124 | 26.11° C | 89% | 1015.2 hPa | 0 mm | - | 66 W/m² | - |
| 1777939825 | 26.11° C | 88% | 1015.2 hPa | 0 mm | - | 59 W/m² | - |
* Rain latest hour (hover to see other rain measurements)
** Current wind speed in m/s (hover to see current wind gust speed)